Home > Time Zones > World Clock > Weather > U.S.A. > Erie > Past weeks

Flag for U.S.A. Weather past 2 weeks in Erie, Pennsylvania, U.S.A.

Now
41 °F

Mostly cloudy.


Feels Like: 32 °F
Forecast: 34 / 40 °F
Wind: 18 mph from West

Location: Erie International Airport

Current Time: Mar 30, 2015 at 6:10:09 AM

Latest Report: Mar 30, 2015 at 4:51 AM


Visibility: 10 mi

Pressure: 29.75 "Hg

Humidity: 70%

Dew point: 32 °F

Location of ErieLocation

Historic Weather in Erie — Graph

°F

Erie temperature yesterday

Maximum temperature yesterday: 45 °F (at 3:51 PM)
Minimum temperature yesterday: 17 °F (at 2:51 AM)
Average temperature yesterday: 33 °F

Past Weeks' High & Low Weather Summary

 TemperatureHumidityPressure
High55 °F (Mar 16, 11:51 PM)93% (Mar 21, 12:51 PM)30.40 "Hg (Mar 21, 12:51 PM)
Low16 °F (Mar 23, 5:51 AM)25% (Mar 29, 3:51 PM)29.66 "Hg (Mar 17, 1:51 AM)
Average32 °F66%30.12 "Hg
* Reported Mar 15 4:51 AM — Mar 30 4:51 AM, Erie, Weather by CustomWeather, © 2015

Note: Actual official high and low records may vary slightly from our data, if they occured in-between our weather recording intervals... More about our weather records

Advertising

Erie weather history for previous 24 hours

 ConditionsComfort  
Time TempWeatherWind HumidityBarometerVisibility
4:51 AM
Mon, Mar 30
41 °FMostly cloudy.18 mph70%29.75 "Hg10 mi
3:51 AM40 °FMostly cloudy.17 mph80%29.74 "Hg10 mi
2:51 AM39 °FMostly cloudy.21 mph79%29.75 "Hg9 mi
1:51 AM39 °FMostly cloudy.24 mph76%29.77 "Hg8 mi
12:59 AM40 °FOvercast.22 mph63%29.78 "Hg10 mi
11:51 PM
Sun, Mar 29
42 °FOvercast.21 mph38%29.85 "Hg10 mi
10:51 PM41 °FOvercast.18 mph41%29.88 "Hg10 mi
9:51 PM39 °FOvercast.16 mph48%29.92 "Hg10 mi
8:51 PM42 °FOvercast.25 mph35%29.98 "Hg10 mi
7:51 PM43 °FPartly sunny.17 mph25%29.92 "Hg10 mi
6:51 PM43 °FSunny.21 mph25%29.95 "Hg10 mi
5:51 PM44 °FSunny.20 mph25%30.01 "Hg10 mi
4:51 PM44 °FSunny.14 mph27%30.04 "Hg10 mi
3:51 PM45 °FSunny.17 mph25%30.10 "Hg10 mi
2:51 PM44 °FSunny.20 mph27%30.18 "Hg10 mi
1:51 PM42 °FSunny.15 mph29%30.23 "Hg10 mi
12:51 PM39 °FSunny.16 mph28%30.27 "Hg10 mi
11:51 AM37 °FSunny.10 mph34%30.30 "Hg10 mi
10:51 AM35 °FSunny.9 mph38%30.32 "Hg10 mi
9:51 AM31 °FSunny.10 mph49%30.33 "Hg10 mi
8:51 AM26 °FSunny.9 mph63%30.34 "Hg10 mi
7:51 AM20 °FClear.9 mph71%30.34 "Hg10 mi
6:51 AM19 °FClear.6 mph71%30.34 "Hg10 mi
Weather by CustomWeather, © 2015

See weather overviewHow to use our weather pages